SCP
0 0 0 0 0 0 0 0 0 0 0 0 0 0 0 0 0 0 0 0 0 0 0 0 0 0 0 0 0 0 0 0 0 0 0 0 0 0 0 0 0 0 0
0 0 0 0 0 0 0 0 0 0 0 0 0 0 0 0 0 0 0 0 0 0 0 0 0 0 0 0 0 0 0 0 0 0 0 0 0 0 0 0 0 0 0
0 0 0 0 0 0 0 0 0 0 0 0 0 0 0 0 0 0 0 0 0 0 0 0 0 0 0 0 0 0 0 0 0 0 0 0 0 0 0 0 0 0 0
0 0 0 0 0 0 0 0 0 0 0 0 0 0 0 0 0 0 0 0 0 0 0 0 0 0 0 0 0 0 0 0 0 0 0 0 0 0 0 0 0 0 0
0 0 0 0 0 0 0 0 0 0 0 0 0 0 0 0 0 0 0 0 0 0 0 0 0 0 0 0 0 0 0 0 0 0 0 0 0 0 0 0 0 0 0
0 0 0 0 0 0 0 0 0 0 0 0 0 0 0 0 0 0 0 0 0 0 0 0 0 0 0 0 0 0 0 0 0 0 0 0 0 0 0 0 0 0 0
0 0 0 0 0 0 0 0 0 0 0 0 0 0 0 0 0 0 0 0 0 0 0 0 0 0 0 0 0 0 0 0 0 0 0 0 0 0 0 0 0 0 0
0 0 0 0 0 0 0 0 0 0 0 0 0 0 0 0 0 0 0 0 0 0 0 0 0 0 0 0 0 0 0 0 0 0 0 0 0 0 0 0 0 0 0
0 0 0 0 0 0 0 0 0 0 0 0 0 0 0 0 0 0 0 0 0 0 0 0 0 0 0 0 0 0 0 0 0 0 0 0 0 0 0 0 0 0 0
0 0 0 0 0 0 0 0 0 0 0 0 0 0 0 0 0 0 0 0 0 0 0 0 0 0 0 0 0 0 0 0 0 0 0 0 0 0 0 0 0 0 0
0 0 0 0 0 0 0 0 0 0 0 0 0 0 0 0 0 0 0 0 0 0 0 0 0 0 0 0 0 0 0 0 0 0 0 0 0 0 0 0 0 0 0
0 0 0 0 0 0 0 0 0 0 0 0 0 0 0 0 0 0 0 0 0 0 0 0 0 0 0 0 0 0 0 0 0 0 0 0 0 0 0 0 0 0 0
0 0 0 0 0 0 0 0 0 0 0 0 0 0 0 0 0 0 0 0 0 0 0 0 0 0 0 0 0 0 0 0 0 0 0 0 0 0 0 0 0 0 0
0 0 0 0 0 0 0 0 0 0 0 0 0 0 0 0 0 0 0 0 0 0 0 0 0 0 0 0 0 0 0 0 0 0 0 0 0 0 0 0 0 0 0
0 0 0 0 0 0 0 0 0 0 0 0 0 0 0 0 0 0 0 0 0 0 0 0 0 0 0 0 0 0 0 0 0 0 0 0 0 0 0 0 0 0 0
0 0 0 0 0 0 0 0 0 0 0 0 0 0 0 0 0 0 0 0 0 0 0 0 0 0 0 0 0 0 0 0 0 0 0 0 0 0 0 0 0 0 0
0 0 0 0 0 0 0 0 0 0 0 0 0 0 0 0 0 0 0 0 0 0 0 0 0 0 0 0 0 0 0 0 0 0 0 0 0 0 0 0 0 0 0
0 0 0 0 0 0 0 0 0 0 0 0 0 0 0 0 0 0 0 0 0 0 0 0 0 0 0 0 0 0 0 0 0 0 0 0 0 0 0 0 0 0 0
0 0 0 0 0 0 0 0 0 0 0 0 0 0 0 0 0 0 0 0 0 0 0 0 0 0 0 0 0 0 0 0 0 0 0 0 0 0 0 0 0 0 0
0 0 0 0 0 0 0 0 0 0 0 0 0 0 0 0 0 0 0 0 0 0 0 0 0 0 0 0 0 0 0 0 0 0 0 0 0 0 0 0 0 0 0
0 0 0 0 0 0 0 0 0 0 0 0 0 0 0 0 0 0 0 0 0 0 0 0 0 0 0 0 0 0 0 0 0 0 0 0 0 0 0 0 0 0 0
0 0 0 0 0 0 0 0 0 0 0 0 0 0 0 0 0 0 0 0 0 0 0 0 0 0 0 0 0 0 0 0 0 0 0 0 0 0 0 0 0 0 0
0 0 0 0 0 0 0 0 0 0 0 0 0 0 0 0 0 0 0 0 0 0 0 0 0 0 0 0 0 0 0 0 0 0 0 0 0 0 0 0 0 0 0
0 0 0 0 0 0 0 0 0 0 0 0 0 0 0 0 0 0 0 0 0 0 0 0 0 0 0 0 0 0 0 0 0 0 0 0 0 0 0 0 0 0 0
0 0 0 0 0 0 0 0 0 0 0 0 0 0 0 0 0 0 0 0 0 0 0 0 0 0 0 0 0 0 0 0 0 0 0 0 0 0 0 0 0 0 0
0 0 0 0 0 0 0 0 0 0 0 0 0 0 0 0 0 0 0 0 0 0 0 0 0 0 0 0 0 0 0 0 0 0 0 0 0 0 0 0 0 0 0
Wind_Speed
4 3 3 3 3 3 3 3 3 4 4 4 4 4 4 4 4 4 3 9 11 11 11 10 9 9 9 9 9 9 8 7 7 6 5 4 3 2 2 1 1 2 2
4 4 3 3 3 3 3 3 4 3 3 2 3 3 3 3 3 4 4 5 10 11 11 11 11 10 9 9 9 9 10 10 9 9 8 7 6 5 4 4 3 2 2
5 4 3 3 3 3 3 2 2 1 1 1 2 3 3 3 4 4 4 3 4 8 11 12 11 9 8 8 8 8 8 10 10 10 10 10 9 8 7 7 6 4 4
5 4 3 2 2 2 1 1 1 1 1 2 2 3 3 3 4 4 4 3 3 3 5 8 8 7 6 5 6 7 6 5 7 9 11 11 11 11 10 10 8 7 6
4 4 3 2 2 1 1 1 1 1 2 2 3 3 3 3 4 4 4 4 3 3 2 3 3 2 2 3 5 5 6 5 4 5 7 9 11 11 11 12 11 10 10
4 3 2 2 1 1 1 1 1 1 2 2 3 3 3 4 4 4 4 3 2 1 1 1 1 2 4 4 5 5 6 6 6 5 5 7 8 10 11 12 13 13 12
4 3 2 2 1 1 1 1 1 1 2 1 1 3 3 3 3 3 2 1 1 1 2 2 3 3 3 7 8 7 7 8 7 6 6 6 7 8 10 12 12 13 14
4 3 3 2 1 1 1 0 0 0 1 0 1 1 3 4 3 3 3 2 2 2 4 4 4 4 3 3 5 8 8 8 8 8 7 7 7 7 9 10 12 13 14
4 4 3 3 2 2 1 0 0 1 1 1 1 2 1 2 2 2 3 4 4 4 3 4 5 5 5 4 3 7 9 8 8 9 9 8 8 8 8 8 9 11 12
4 4 4 3 2 2 2 1 1 0 1 1 1 2 3 2 2 2 2 3 4 5 4 4 5 5 5 4 5 8 9 9 9 9 9 8 7 7 7 7 7 7 8
4 4 4 3 3 2 2 1 1 1 0 1 1 1 1 2 3 3 2 1 2 3 4 4 4 4 5 4 4 7 10 10 10 9 8 8 8 8 8 7 6 6 5
3 3 4 3 3 2 2 1 1 1 0 0 1 1 1 2 2 2 3 2 1 1 3 4 4 3 4 4 5 9 10 11 10 10 10 10 11 10 10 9 8 7 6
2 3 3 3 2 2 2 1 1 0 0 0 1 1 1 1 1 1 2 2 1 2 2 3 3 3 3 3 4 9 10 11 11 10 11 12 12 12 12 12 11 9 7
3 4 4 3 3 2 2 1 1 0 1 0 0 0 0 1 1 1 1 1 1 1 2 3 2 3 2 3 5 8 6 10 10 11 11 12 12 12 12 12 12 11 8
4 4 4 4 3 2 2 1 1 1 1 1 1 1 1 1 1 1 1 1 2 3 2 3 2 1 1 2 5 4 4 8 9 9 10 10 11 11 12 12 12 12 10
4 5 4 4 3 2 2 1 1 1 1 1 1 2 1 1 1 1 1 1 0 2 2 2 2 1 2 2 5 4 4 8 10 9 9 9 9 10 10 11 12 12 11
5 5 4 4 3 2 2 1 1 1 2 1 1 2 2 2 2 2 1 1 1 0 2 2 2 1 2 2 2 3 3 4 4 9 9 9 9 9 9 10 11 12 12
5 4 4 4 3 2 1 1 1 2 2 2 2 2 2 2 2 2 2 2 1 1 1 2 2 1 1 1 1 2 3 3 3 7 8 8 7 8 9 10 10 11 11
5 4 4 4 3 2 2 2 2 2 2 3 2 3 2 3 2 2 2 2 1 1 1 2 2 1 1 1 2 2 2 3 3 5 7 8 8 8 8 9 10 10 10
5 4 4 4 3 3 2 2 3 3 3 3 3 3 3 3 2 2 2 1 1 2 2 3 2 2 1 1 2 2 2 3 3 4 6 6 8 9 9 9 9 9 9
5 4 4 4 3 3 3 3 3 4 4 4 3 3 2 3 3 2 2 1 2 2 2 2 2 2 1 1 1 1 1 2 2 3 3 3 4 4 5 7 7 7 8
4 4 4 4 4 2 5 6 5 4 4 4 3 2 2 2 3 3 4 3 3 3 2 2 2 2 1 1 0 1 1 1 2 2 2 3 3 2 3 3 5 6 6
4 4 5 4 4 4 6 7 7 5 4 4 3 3 1 1 3 2 3 5 4 4 3 4 3 3 3 2 2 1 0 1 1 2 2 2 2 2 3 4 7 5 5
4 4 4 5 4 5 7 7 8 4 3 3 3 3 3 2 2 3 2 2 2 2 2 2 3 3 3 3 3 2 2 1 1 1 1 1 2 2 3 4 7 5 5
4 4 4 5 5 5 8 8 8 4 3 3 3 3 4 3 5 5 4 2 1 1 2 4 4 4 4 4 4 2 1 1 1 1 2 1 2 2 3 3 4 7 7
5 5 4 5 6 5 9 10 10 3 3 3 3 3 6 6 7 6 4 3 3 2 1 1 1 2 2 1 2 3 3 2 1 1 1 1 1 2 3 2 2 3 4
Wind_Direction
182 187 196 201 208 209 215 230 241 252 256 256 250 246 250 253 251 243 244 240 239 239 241 242 244 245 247 245 243 241 233 228 224 219 214 209 207 208 197 180 132 121 116
176 178 190 198 209 210 212 215 225 236 247 251 261 258 256 261 260 258 249 248 244 243 245 247 250 254 257 257 257 252 239 231 226 223 221 218 214 214 215 213 208 189 175
172 170 177 190 208 209 208 214 233 237 259 269 276 282 280 278 277 273 263 248 249 246 247 253 257 258 263 271 276 278 263 241 230 225 223 221 219 216 216 216 214 208 200
166 161 167 189 202 191 184 201 222 248 270 278 284 288 289 289 286 279 271 259 248 249 247 249 256 264 275 286 298 304 304 288 252 235 228 225 223 221 219 217 216 213 209
163 156 166 187 183 168 182 206 209 213 255 276 279 278 280 278 277 277 274 268 251 235 229 238 245 267 308 322 328 335 336 339 325 274 246 234 230 228 225 221 218 217 213
157 149 153 169 154 154 203 223 235 237 240 260 279 283 277 275 275 273 273 275 264 233 190 143 112 79 60 44 28 17 8 2 358 341 300 263 244 238 234 229 224 221 218
147 140 140 137 129 150 198 229 232 257 269 272 302 309 304 294 300 301 297 301 353 75 89 90 87 83 68 58 47 37 22 10 359 344 332 313 282 261 247 238 232 227 223
139 136 137 135 129 133 117 74 130 208 266 220 176 310 321 332 339 357 9 35 42 60 68 68 76 76 71 56 43 39 25 10 357 343 326 308 301 288 269 253 242 235 230
129 124 125 122 113 122 130 97 88 170 260 286 197 196 233 267 305 333 20 34 43 54 55 59 65 66 66 55 39 31 26 11 355 341 328 312 300 291 284 273 258 244 236
119 115 112 110 108 108 111 91 79 141 200 254 281 242 224 217 242 299 342 31 42 46 42 51 58 59 55 48 40 34 25 11 358 345 337 333 326 320 308 298 286 269 253
111 110 109 108 105 97 93 77 67 53 173 217 234 263 265 250 225 226 256 296 42 42 43 47 53 53 48 39 28 28 25 14 6 356 353 355 357 354 347 332 315 303 289
107 107 107 106 102 96 86 74 64 64 53 241 241 239 236 238 229 221 235 229 186 84 58 44 45 46 42 30 31 30 26 19 12 9 17 24 22 16 11 3 350 332 317
146 143 121 117 107 102 93 78 62 29 353 280 252 254 267 270 275 245 238 231 187 147 112 62 35 38 43 28 22 27 25 23 19 20 27 32 30 25 20 15 9 3 353
151 145 129 120 111 103 92 78 69 18 42 13 353 12 54 20 353 294 246 214 212 186 146 135 59 38 33 21 32 32 19 26 28 32 35 34 30 27 23 19 17 14 9
133 129 123 119 111 102 94 94 88 62 86 73 64 69 74 47 29 5 331 246 208 212 197 146 125 45 22 28 37 25 15 25 32 37 37 32 28 26 25 24 22 20 21
125 129 127 124 116 100 87 88 88 101 106 85 85 90 80 61 51 32 7 335 272 208 183 121 119 102 41 42 47 29 20 30 24 34 35 31 27 25 26 25 23 23 23
132 132 131 127 120 106 97 105 125 122 118 100 89 102 85 68 59 29 25 36 34 101 163 115 100 102 74 49 31 23 26 23 8 26 29 28 27 26 26 25 24 27 28
129 130 130 131 129 120 116 136 149 134 133 121 107 105 94 85 69 44 42 41 33 22 135 138 121 113 93 68 44 31 21 19 4 17 22 23 25 31 32 30 28 27 27
132 133 137 142 142 138 132 133 137 126 120 119 117 117 108 102 82 57 55 46 24 31 71 123 124 103 85 52 44 25 24 10 2 13 16 20 26 35 38 36 32 28 26
144 149 150 149 148 146 142 138 133 123 114 106 104 108 106 108 112 97 72 51 54 63 72 99 105 97 80 45 61 34 15 5 357 360 7 14 20 27 27 31 29 26 26
153 153 146 146 149 152 162 156 147 143 136 121 104 96 103 117 129 130 121 107 101 97 96 100 104 96 85 64 58 15 14 337 343 1 347 358 3 7 6 5 12 20 23
154 152 157 161 167 177 182 176 161 150 148 144 137 115 96 77 90 88 95 106 127 136 142 131 126 139 153 154 132 60 51 21 318 340 0 339 3 358 342 334 353 14 20
162 165 171 171 177 191 193 187 176 153 153 157 160 161 159 140 92 65 68 59 52 77 131 149 150 167 171 182 158 132 149 195 252 304 351 322 347 336 327 339 350 14 23
171 177 181 179 180 199 200 192 177 151 157 170 176 176 171 174 183 155 120 84 49 37 80 113 146 166 176 177 176 174 184 213 292 336 24 313 332 322 324 331 347 13 15
176 181 181 180 184 202 202 195 173 151 169 188 197 195 189 197 217 183 155 148 105 7 97 132 143 160 174 174 159 124 110 81 337 325 8 20 330 323 317 317 340 5 7
180 179 186 190 190 202 210 204 185 165 180 196 210 218 214 208 220 198 171 175 191 217 195 107 85 67 57 62 130 143 152 146 180 270 335 43 356 359 332 311 321 338 352